Погода Большое Нарымское

Погода Большое Нарымское : погода сейчас, прогноз погоды и архив. Всё, что Вы хотите узнать о погоде Большое Нарымское!

Поиск расширенной информации на нашем сайте:

Полезная информация: последние блоки аренда офиса в бизнес центре ЭКО , Мироновская ул., 25 описание помещений на сайте

Другие новости

Новости СМИ2

Главная страница сайта

Новости сайта

03.07.2017

Напоминаем, что на нашем специализированном сайте Метеоцентр.Азия вы можете получить высокодетализированные автоматические прогнозы погоды по пунктам России, СНГ и мира в авиационном формате (включающие направление и скорость ветра, видимость, явления погоды, количество и форму облачности, нижнюю и верхнюю границу облачности).

Рекомендуем: Самая актуальная информация напосим курс тут.

Погода Большое Нарымское - сегодня

Время (UTC), дата Ветер
(°,м/с) 
Видим.   Явления Облачность Т
(°С)
Тd
(°С)
f(%) Тe
(°С)
Pmin
(гПа)
dP
(гПа)
Po
(мм)
O2
(г/м3)
Тmin Tmax R s Состояние
почвы
06 10.12.17 250 (З) 20000 м    8/4 1500 м средняя, верхняя 
[Sc|Ac lent|Ci fib]
-7.6 -11.1 76 -7  1026.1  -0.5  731  304  -12.3         
09 10.12.17 290 (З) 20000 м    10/8 1000 м кучево-дожд., средняя 
[Cb cap|Ac und]
-0.6 -4 78 -2  1031.3  6.3  736  298           
12 10.12.17 тихо ()   н/о  слаб. ливневой снег  10/10 600 м кучево-дожд. 
[Cb cap]
-2.1 -3.6 89 -2  1032.8  1.1  737  299           
15 10.12.17 290 (З) н/о    4/3 1000 м кучево-дожд., верхняя 
[Cb cap|Ci fib]
-3.4 -5.8 83 -7  1034.6  1.5  738  302    -0.1       
18 10.12.17 010 (С) н/о    1/0 верхняя 
[Ci fib]
-9 -11 85 -11  1036.7  0.9  738  309    -0.1  0.7     
21 10.12.17 тихо ()   н/о    ясно 
-13.4 -14.6 91 -13  1036.4  -1.1  738  314           
00 11.12.17 060 (СВ) н/о    ясно 
-14.8 -15.9 91 -15  1034.8  -1.8  736  315           
03 11.12.17 тихо ()   20000 м    4/0 средняя, верхняя 
[Ac lent|Ci fib]
-15.4 -16.1 94 -15  1033.6  -1.3  735  315        равномерный
сухой снег
100% 
06 11.12.17 190 (Ю) 20000 м    3/0 верхняя 
[Cc]
-7.4 -11.7 71 -7  1030.1  -1.8  734  305  -15.7         
09 11.12.17 120 (ЮВ) 20000 м    9/1 1500 м средняя, верхняя 
[Sc|Ac und|Ci fib]
-5.8 -9.2 77 -7  1027  -2.6  732  302           
12 11.12.17 тихо ()   н/о    10/8 1500 м средняя 
[Sc|Ac und]
-8.6 -10.5 86 -9  1027  -0.5  732  305           
15 11.12.17 120 (ЮВ) н/о  слаб. ливневой снег  10/10 600 м кучево-дожд. 
[Cb cap]
-7.2 -8.9 88 -9  1028.3  1.5  733  304    -5.6       
18 11.12.17 060 (СВ) н/о  слаб. ливневой снег  10/10 600 м кучево-дожд. 
[Cb cap]
-6.2 -7 94 -6  1029.2  734  303    -5.6  0.8     
21 11.12.17 280 (З) н/о  слаб. ливневой снег  10/10 600 м кучево-дожд. 
[Cb cap]
-7.2 -8.1 93 -9  1030.1  0.7  734  305           
00 12.12.17 340 (С) н/о  {ливн. осадки}  10/8 600 м кучево-дожд., средняя 
[Cb cap|Ac und]
-7.4 -9.1 88 -7  1030.6  0.4  734  305           
03 12.12.17 360 (С) 20000 м    10/4 1500 м средняя 
[Sc|Ac und]
-11.1 -12.7 88 -13  1032.8  1.4  735  310        13  равномерный
сухой снег
100% 
06 12.12.17 тихо ()   20000 м    9/3 1500 м средняя, верхняя 
[Sc|Ac trans|Ci fib]
-8.4 -11.6 78 -8  1032.9  0.6  736  307  -11.1       
09 12.12.17 тихо ()   20000 м    9/5 1500 м средняя 
[Sc|Ac und]
-7.7 -10.7 79 -8  1032.1  -0.6  735  306           
12 12.12.17 тихо ()   н/о    10/6 600 м средняя 
[Sc|Ac und]
-8.4 -10.3 86 -8  1033.3  736  307           
15 12.12.17 110 (В) н/о    10/8 1500 м средняя 
[Sc|Ac und]
-9 -9.7 95 -9  1034  0.6  737  308    -5.6       
18 12.12.17 тихо ()   н/о  слаб. ливневой снег  10/10 600 м кучево-дожд. 
[Cb cap]
-8.8 -9.5 95 -9  1035.3  1.2  737  308    -5.6       
21 12.12.17 тихо ()   н/о  слаб. ливневой снег  10/10 1000 м кучево-дожд. 
[Cb cap]
-8.7 -9.4 95 -9  1036  0.7  738  308           
00 13.12.17 тихо ()   н/о  {ливн. осадки}  9/5 1000 м кучево-дожд., средняя 
[Cb cap|Ac und]
-9.8 -11 91 -10  1037.4  1.1  739  310           
03 13.12.17 040 (СВ) 10 км    10/6 300 м средняя 
[St|Ac As]
-11.5 -12.3 94 -13  1039.6  1.8  740  312      15  равномерный
сухой снег
100% 
06 13.12.17 280 (З) 20000 м    4/3 600 м средняя, верхняя 
[St|Ac lent|Ci fib]
-9.8 -11.9 85 -12  1040.5  1.2  741  311  -12.8       
Время (UTC), дата Ветер
(°,м/с) 
Видим.   Явления Облачность Т
(°С)
Тd
(°С)
f(%) Тe
(°С)
Pmin
(гПа)
dP
(гПа)
Po
(мм)
O2
(г/м3)
Тmin Tmax R s Состояние
почвы

Для получения пояснительной информации подведите курсор к названию столбца.

ПОГОДА Большое Нарымское - архив

Всё, что Вы хотите узнать о погоде Большое Нарымское - удобно и подробно!

Выберите нужную дату (начиная с 1 января 2015* года) и нажмите кнопку "Найти".
Будут отображены архивные сводки погоды по пункту Большое Нарымское, начиная с указанной даты.


Отображать данные в формате CSV (для использования в таблицах Excel)


Внимание! Наш архив погоды предназначен исключительно для личного некоммерческого использования в познавательных целях. Если Вам необходимы официальные справки о состоянии погоды (для производственных, юридических, коммерческих и т.п. целей), обращайтесь в органы Росгидромета.

*Примечание: данная дата относится к архиву по метеостанциям СССР (Россия, СНГ, Балтия).
Архив по метеостанциям Зарубежной Европы и Азии (кроме Китая) хранится 10 дней, по другим регионам земного шара (Китай, Африка, Америка, Австралия, Океания) - 1 день.

Большое Нарымское - район местоположения метеостанции


Название, широта, долгота, высота метеостанции:
Большое Нарымское 49.2°ш. 84.5°д. 401 м над ур. моря [Казахстан]

Дополнительная информация

В oтличие oт бoльшинства пoгoдных сайтoв мы публикуем пoдрoбную метеoинфoрмацию в детальнoм прoфессиoнальнoм фoрмате.

Характеристики температуры и влажнoсти вoздуха измеряются на высoте 2 м в тени вдали oт зданий и деревьев.
Скoрoсть ветра измеряется на высoте 10 м (на урoвне рoста челoвека скoрoсть ветра ниже в 1.5-2 раза). Если метеoстанция нахoдится в гoрoде или в лесу, тo скoрoсть ветра занижена на 2-4 м/с пo сравнению с oткрытым местoм. Скoрoсть ветра над акватoриями крупных рек и oзёр, а также на вершинах хoлмoв на 2-5 м/с выше, чем в oбычных услoвиях.
Атмoсфернoе давление в разных тoчках местнoсти мoжет значительнo oтличаться oт давления на метеoстанции, в зависимoсти oт услoвий рельефа (при пoдъёме на 10 м давление пoнижается примернo на 1 мм рт.ст.).